Back to catalog

COSMOS 886 DEB

AliveUNKNOWN
NORAD 15762·DEBRIS·🇷🇺 Russia

Launched Dec 27, 1976 from Baikonur Cosmodrome

Loading…

Next Passes (next 24 hours)

TLE

FreshSource: Space-Track

Epoch: Sep 14, 2026, 07:43 UTC

1 15762U 76126BU  26257.32208558 -.00000159  00000-0 -20322-3 0  9997
2 15762  65.6657   9.1837 0738295 127.6797 239.3538 12.59492462713366

Track COSMOS 886 DEB in real time with AllMySat

Download on the App Store